[[{"header":{"parameterUnit":"m.s-1","parameterCategory":1,"la1":30.2991,"la2":30.254,"lo1":-89.0895,"lo2":-89.0444,"dy":0.0017,"dx":0.0017,"nx":28,"ny":28,"refTime":"2023-10-13T03:00:00:Z","depth":0,"parameterNumber":2,"parameterNumberName":"U-component_of_WINDS"},"data":[0,0,0,0,0,0,0,0,0,0,0,0,0,0,0,0,0,0,0,0,0,0,0,0,0,0,0,0,0,0,0,0,0,0,0,0,0,0,0,0,0,0,0,0,0,0,0,0,0,0,0,0,0,0,0,0,0,0,3.1302,3.1303,0,3.1356,3.1356,3.1357,3.1296,3.1293,3.1291,3.1289,3.1343,3.1347,3.135,0,0,0,0,0,0,0,0,0,0,0,0,0,3.1148,3.1151,3.1302,3.1303,3.1303,3.1355,3.1356,3.1357,3.1296,3.1293,3.1291,3.1288,3.1342,3.1346,3.135,0,0,0,0,0,0,0,0,0,0,0,0,0,3.121,3.1152,3.1302,3.1279,3.1278,3.1355,3.1356,3.1357,3.1297,3.1293,3.129,3.1287,3.1341,3.1346,3.1351,3.1453,0,0,3.1367,3.137,0,0,0,0,0,0,0,0,3.1206,3.1215,3.1282,3.1281,3.128,3.1315,3.1322,3.1389,3.1298,3.129,3.1289,3.1285,3.1337,3.1342,3.136,3.1456,3.1458,3.1368,3.1371,3.1373,3.1375,0,0,0,0,0,0,0,3.1202,3.1213,3.1323,3.1283,3.1282,3.1267,3.1272,3.1334,3.1332,3.129,3.1286,3.1293,3.1335,3.1355,3.136,3.1459,3.1368,3.1373,3.1376,3.1378,3.1643,3.1647,0,0,0,0,0,0,3.12,3.1209,3.1321,3.1325,3.1234,3.1272,3.1278,3.1307,3.1331,3.1331,3.1296,3.129,3.1347,3.1354,3.1362,3.1485,3.1373,3.1378,3.1382,3.1639,3.1644,3.1648,0,0,0,0,0,0,3.1197,3.1211,3.1319,3.1266,3.1279,3.1279,3.1312,3.131,3.133,3.1335,3.1335,3.1316,3.1345,3.1355,3.1431,3.1486,3.1381,3.1386,3.1635,3.1641,3.1646,3.173,0,0,0,0,0,0,3.1193,3.121,3.1249,3.1267,3.1282,3.1388,3.1316,3.1314,3.1339,3.1332,3.1354,3.1354,3.1343,3.1424,3.1437,3.1491,3.139,3.163,3.1638,3.1644,3.1722,3.1738,3.1751,0,0,0,0,0,3.1188,3.1269,3.1251,3.1265,3.133,3.1391,3.1399,3.1384,3.1344,3.1383,3.1387,3.1354,3.1478,3.1432,3.1446,3.1503,3.1627,3.1635,3.1644,3.1716,3.1735,3.175,0,0,0,0,0,0,3.1256,3.1271,3.1251,3.1341,3.1365,3.138,3.1429,3.1404,3.1441,3.1432,3.1412,3.1418,3.15,3.1509,3.1458,3.1604,3.1545,3.1557,3.1595,3.1613,3.1627,3.1624,3.1394,0,0,0,0,0,3.1282,3.133,3.1341,3.1419,3.1432,3.1429,3.1455,3.1442,3.1466,3.1476,3.1485,3.151,3.1554,3.1584,3.1625,3.1723,3.1728,3.1769,3.1784,3.1795,3.1806,3.186,3.1879,3.1677,3.1676,3.1676,0,0,3.1335,3.1349,3.1381,3.1433,3.145,3.1502,3.1438,3.1494,3.1532,3.1484,3.1558,3.1566,3.1592,3.1681,3.172,3.1691,3.1863,3.1806,3.1816,3.182,3.1871,3.189,3.1907,3.1682,3.1681,3.168,0,0,3.1458,3.1473,3.1541,3.1561,3.1588,3.1585,3.1602,3.1622,3.1625,3.1699,3.1665,3.171,3.1786,3.1807,3.1828,3.1962,3.1933,3.1976,3.2051,3.2104,3.212,3.2134,3.2183,3.2201,3.1986,3.1986,3.1987,0,3.1521,3.1596,3.1579,3.1639,3.1664,3.1624,3.1693,3.1712,3.1751,3.177,3.1736,3.1834,3.1848,3.1942,3.1975,3.1992,3.2011,3.1973,3.2119,3.2133,3.2146,3.2192,3.2211,3.1991,3.1991,3.199,3.199,0,3.1673,3.1726,3.1778,3.1818,3.1848,3.1912,3.1906,3.1939,3.1923,3.1925,3.2001,3.2018,3.2063,3.2084,3.2068,3.2176,3.2157,3.2122,3.2063,3.2171,3.2214,3.2232,3.1999,3.1997,3.1995,3.1994,0,0,3.184,3.1871,3.1891,3.1909,3.1937,3.1978,3.2041,3.2086,3.2115,3.2144,3.2197,3.2264,3.2232,3.2256,3.2243,3.2289,3.2396,3.2248,3.2249,3.2276,3.2517,3.2544,3.2565,3.2378,3.2381,3.2383,3.2516,0,3.1965,3.2074,3.2061,3.2166,3.2216,3.2179,3.2234,3.2258,3.2261,3.2304,3.2307,3.2356,3.231,3.2324,3.2368,3.2374,3.2445,3.2364,3.2427,3.243,3.2423,3.2588,3.2616,3.274,3.2532,3.2535,3.2537,0,3.2125,3.2161,3.2271,3.2293,3.2313,3.2363,3.2404,3.2445,3.2472,3.2471,3.2499,3.2478,3.2542,3.2482,3.257,3.2516,3.2541,3.2548,3.2552,3.2558,3.249,3.2599,3.2779,3.2798,3.2564,3.2561,3.256,0,3.2237,3.2313,3.2389,3.2406,3.2434,3.247,3.2483,3.2506,3.2534,3.257,3.2588,3.2631,3.2655,3.2688,3.268,3.2637,3.2771,3.271,3.2773,3.2774,3.2803,3.2802,3.2991,3.2819,3.2818,3.2818,3.2818,0,3.2378,3.2447,3.244,3.2487,3.2564,3.2549,3.2626,3.2634,3.2656,3.2704,3.2675,3.2721,3.2707,3.2753,3.2747,3.2822,3.2832,3.2834,3.2832,3.2837,3.2837,3.2854,3.2845,3.2823,3.2822,3.2821,3.282,0,3.2517,3.2515,3.2596,3.2616,3.2623,3.2679,3.2696,3.2741,3.2742,3.2804,3.2817,3.282,3.2873,3.2868,3.2926,3.2922,3.3016,3.3003,3.3007,3.3005,3.3069,3.3064,3.3276,3.3304,3.3113,3.3115,3.3116,0,3.2608,3.266,3.2687,3.2717,3.2733,3.2783,3.2812,3.28,3.2832,3.2867,3.2908,3.2958,3.2997,3.3083,3.309,3.3135,3.3124,3.3195,3.313,3.3135,3.3126,3.3124,3.3129,3.3208,3.321,3.3212,3.3213,0,3.2769,3.2766,3.2809,3.2853,3.2889,3.2923,3.2953,3.298,3.2972,3.3009,3.3063,3.3093,3.3154,3.3204,3.3248,3.3261,3.3237,3.3234,3.3251,3.3257,3.3258,3.326,3.3043,3.3229,3.3227,3.3226,3.3225,3.3225,3.2887,3.2933,3.296,3.3009,3.3031,3.3061,3.3105,3.3113,3.3157,3.3206,3.3196,3.3257,3.3284,3.334,3.3358,3.3406,3.338,3.3405,3.3411,3.3418,3.3426,3.325,3.3414,3.3413,3.3413,3.3412,3.3412,0,3.3049,3.3064,3.311,3.3155,3.3195,3.3168,3.3201,3.3236,3.329,3.3317,3.3357,3.342,3.3469,3.3481,3.3529,3.3565,3.3555,3.3578,3.3575,3.3579,3.3446,3.3426,3.3585,3.3585,3.3585,3.3585,3.3585,3.3585,3.3137,3.3214,3.3214,3.3302,3.3317,3.3377,3.3398,3.3426,3.3448,3.352,3.3561,3.3568,3.359,3.3639,3.3683,3.3685,3.3705,3.3733,3.3731,3.3606,3.3588,3.3572,3.3554,3.3737,3.3737,3.386,3.3861,3.3862]},{"header":{"parameterUnit":"m.s-1","parameterCategory":1,"la1":30.2991,"la2":30.254,"lo1":-89.0895,"lo2":-89.0444,"dy":0.0017,"dx":0.0017,"nx":28,"ny":28,"refTime":"2023-10-13T03:00:00:Z","depth":0,"parameterNumber":3,"parameterNumberName":"V-component_of_WINDS"},"data":[0,0,0,0,0,0,0,0,0,0,0,0,0,0,0,0,0,0,0,0,0,0,0,0,0,0,0,0,0,0,0,0,0,0,0,0,0,0,0,0,0,0,0,0,0,0,0,0,0,0,0,0,0,0,0,0,0,0,0.121,0.1211,0,0.1315,0.1316,0.1317,0.1331,0.133,0.1329,0.1328,0.1438,0.1441,0.1445,0,0,0,0,0,0,0,0,0,0,0,0,0,0.102,0.1023,0.1209,0.1211,0.1212,0.1315,0.1316,0.1318,0.1331,0.133,0.1329,0.1328,0.1436,0.1441,0.1445,0,0,0,0,0,0,0,0,0,0,0,0,0,0.1111,0.1024,0.1209,0.1231,0.1234,0.1315,0.1316,0.1318,0.1332,0.133,0.1329,0.1327,0.1435,0.144,0.1446,0.1512,0,0,0.1464,0.1466,0,0,0,0,0,0,0,0,0.1106,0.1118,0.1227,0.123,0.1233,0.1308,0.1289,0.1383,0.1332,0.1295,0.1328,0.1326,0.1396,0.1405,0.1428,0.1517,0.1522,0.1464,0.1468,0.147,0.1472,0,0,0,0,0,0,0,0.11,0.1114,0.1251,0.1228,0.1232,0.1236,0.1247,0.1307,0.1353,0.1298,0.1299,0.1311,0.1397,0.1422,0.1431,0.1524,0.1464,0.1469,0.1473,0.1475,0.1671,0.1673,0,0,0,0,0,0,0.1089,0.1108,0.1248,0.1254,0.1165,0.124,0.1253,0.1286,0.1352,0.136,0.1312,0.1311,0.1413,0.1424,0.1434,0.1516,0.147,0.1476,0.1479,0.1669,0.1671,0.1673,0,0,0,0,0,0,0.1085,0.1102,0.1244,0.1182,0.12,0.1245,0.1282,0.1289,0.1314,0.1363,0.1371,0.133,0.1412,0.1426,0.1492,0.152,0.1478,0.1484,0.1667,0.167,0.1672,0.1679,0,0,0,0,0,0,0.108,0.11,0.1126,0.1182,0.1203,0.13,0.1284,0.1292,0.1323,0.1323,0.1381,0.1389,0.1412,0.1484,0.1498,0.1527,0.1488,0.1665,0.1668,0.1671,0.1676,0.1681,0.1686,0,0,0,0,0,0.1073,0.1124,0.1127,0.1144,0.1237,0.1302,0.1314,0.1339,0.1326,0.1352,0.1383,0.1388,0.1514,0.149,0.1507,0.1538,0.1663,0.1667,0.1671,0.1674,0.168,0.1685,0,0,0,0,0,0,0.1071,0.1132,0.1136,0.1207,0.1249,0.1304,0.1338,0.1344,0.1391,0.1389,0.1418,0.1431,0.1496,0.1523,0.1496,0.1604,0.1587,0.1595,0.1584,0.159,0.1595,0.1587,0.1493,0,0,0,0,0,0.1078,0.1126,0.1177,0.1235,0.1255,0.1293,0.1322,0.1337,0.1382,0.14,0.1436,0.1479,0.1529,0.1561,0.1609,0.168,0.1692,0.1709,0.1713,0.1717,0.1723,0.1762,0.177,0.1686,0.1686,0.1686,0,0,0.1095,0.1134,0.1163,0.1235,0.1269,0.1318,0.1308,0.136,0.1396,0.1408,0.1472,0.15,0.155,0.1618,0.165,0.1643,0.1749,0.1722,0.1724,0.1729,0.1767,0.1774,0.1782,0.1689,0.1688,0.1688,0,0,0.115,0.1185,0.1236,0.127,0.1322,0.1346,0.1358,0.1412,0.143,0.1495,0.1505,0.1548,0.1632,0.1668,0.1696,0.1762,0.1768,0.1777,0.1801,0.1838,0.1845,0.1851,0.1874,0.1883,0.1783,0.1783,0.1783,0,0.1165,0.1238,0.1262,0.1314,0.1345,0.1356,0.1408,0.144,0.1505,0.1526,0.1517,0.1622,0.1657,0.1733,0.1749,0.1772,0.1787,0.1771,0.1842,0.1848,0.1854,0.1877,0.1886,0.1784,0.1784,0.1783,0.1783,0,0.1253,0.1304,0.1339,0.14,0.1435,0.1487,0.1518,0.1551,0.1562,0.1587,0.1652,0.1693,0.175,0.1769,0.1781,0.1846,0.184,0.1836,0.182,0.1863,0.1884,0.1893,0.1785,0.1784,0.1784,0.1784,0,0,0.1313,0.1385,0.1397,0.1425,0.1481,0.1521,0.1572,0.1626,0.1653,0.1696,0.174,0.181,0.1806,0.1839,0.1855,0.1887,0.1936,0.1879,0.1881,0.1889,0.201,0.2013,0.2023,0.1939,0.1941,0.1942,0.2006,0,0.1375,0.1467,0.1488,0.1567,0.1614,0.1624,0.1669,0.1708,0.1732,0.1774,0.1801,0.185,0.1841,0.1861,0.1893,0.1923,0.1961,0.1919,0.1981,0.1982,0.1969,0.2034,0.2039,0.2097,0.2014,0.2016,0.2017,0,0.146,0.1504,0.1587,0.1636,0.1657,0.1696,0.1747,0.1788,0.1832,0.1847,0.1882,0.1894,0.1947,0.1927,0.2,0.1971,0.1997,0.2016,0.2018,0.2026,0.2003,0.2044,0.2116,0.2125,0.2031,0.203,0.2029,0,0.1495,0.1575,0.1635,0.1658,0.1717,0.1744,0.177,0.1812,0.1843,0.1887,0.1907,0.1957,0.1984,0.2022,0.2047,0.203,0.2118,0.21,0.2133,0.2132,0.2152,0.2151,0.2229,0.2167,0.2167,0.2167,0.2167,0,0.1563,0.1613,0.1652,0.1689,0.1745,0.1769,0.1824,0.185,0.1887,0.1929,0.194,0.1979,0.2009,0.2052,0.2072,0.2129,0.2142,0.2155,0.216,0.2155,0.2153,0.2173,0.217,0.2169,0.2169,0.2168,0.2168,0,0.1612,0.164,0.1706,0.1755,0.1768,0.1808,0.185,0.1886,0.1909,0.1961,0.1975,0.2012,0.2063,0.2091,0.2155,0.2168,0.2232,0.2235,0.2217,0.222,0.225,0.2247,0.2345,0.2359,0.2287,0.2288,0.2289,0,0.1654,0.1693,0.1746,0.1774,0.18,0.1846,0.1877,0.1901,0.1933,0.1985,0.2014,0.2065,0.2108,0.2189,0.2221,0.227,0.2274,0.2305,0.2281,0.2274,0.2275,0.2272,0.2276,0.2309,0.231,0.231,0.2311,0,0.1726,0.1737,0.1781,0.1829,0.1865,0.1905,0.1944,0.1966,0.1997,0.2032,0.2083,0.2116,0.2181,0.2231,0.2282,0.2308,0.2315,0.2317,0.2328,0.2323,0.2312,0.2319,0.2229,0.2316,0.2315,0.2315,0.2315,0.2314,0.1773,0.1808,0.185,0.1898,0.1929,0.1965,0.2001,0.2028,0.2071,0.2125,0.2137,0.2191,0.2233,0.2301,0.2329,0.2371,0.2365,0.238,0.2384,0.2387,0.2389,0.2304,0.238,0.238,0.238,0.238,0.238,0,0.1845,0.1872,0.1916,0.197,0.2007,0.2009,0.2051,0.2083,0.213,0.2168,0.2209,0.2268,0.2316,0.2352,0.2401,0.2428,0.2432,0.2441,0.2439,0.2445,0.2391,0.2377,0.2436,0.2436,0.2436,0.2436,0.2436,0.2436,0.1887,0.1946,0.1962,0.2035,0.2062,0.2115,0.2139,0.2172,0.2202,0.2267,0.2307,0.2329,0.2366,0.2418,0.2462,0.2471,0.2489,0.2497,0.2506,0.2455,0.2449,0.2444,0.2431,0.25,0.25,0.2557,0.2558,0.2558]}]]